GW6786 Weather Reports


time (UTC)temp
F
wind
direction
speed
knots
gust
knots
rain 1hr
in
rain 24hr
in
rain mn
in
humidity
%
barometer
mb
20260503184604 57 258 4.3 7.0 0.00 0.00 0.00 77 1017.5
20260503184104 58 257 3.5 7.0 0.00 0.00 0.00 77 1017.5
20260503183604 58 254 4.3 7.0 0.00 0.00 0.00 76 1017.5
20260503183104 58 254 5.2 7.0 0.00 0.00 0.00 76 1017.6
20260503182604 58 263 4.3 7.0 0.00 0.00 0.00 75 1017.5
20260503182104 59 240 3.5 7.0 0.00 0.00 0.00 74 1017.5
20260503181604 59 252 3.5 6.1 0.00 0.00 0.00 73 1017.4
20260503181104 59 269 2.6 6.1 0.00 0.00 0.00 73 1017.4
20260503180605 59 259 1.7 6.1 0.00 0.00 0.00 73 1017.3
20260503180105 59 280 1.7 6.1 0.00 0.00 0.00 73 1017.3
20260503175604 59 269 2.6 6.1 0.00 0.00 0.00 73 1017.3
20260503175104 59 294 1.7 7.8 0.00 0.00 0.00 73 1017.3
20260503174104 59 316 2.6 7.8 0.00 0.00 0.00 73 1017.4
20260503173104 59 313 1.7 5.2 0.00 0.00 0.00 73 1017.3
20260503172604 59 292 2.6 5.2 0.00 0.00 0.00 73 1017.4
20260503172104 59 250 1.7 4.3 0.00 0.00 0.00 73 1017.4
20260503171604 60 250 1.7 7.0 0.00 0.00 0.00 72 1017.4
20260503170604 60 296 2.6 7.8 0.00 0.00 0.00 71 1017.4
20260503170104 60 297 3.5 7.8 0.00 0.00 0.00 71 1017.5
20260503160104 59 309 5.2 10.4 0.00 0.00 0.00 74 1018.1
20260503150604 59 310 5.2 11.3 0.00 0.00 0.00 75 1018.5
20260503150104 59 306 6.1 13.0 0.00 0.00 0.00 75 1018.5
20260503131104 57 285 4.3 7.0 0.00 0.00 0.00 78 1019.2
20260503130604 57 303 4.3 7.0 0.00 0.00 0.00 78 1019.3
20260503130104 57 325 4.3 7.0 0.00 0.00 0.00 80 1019.3
20260503110104 56 349 2.6 5.2 0.00 0.00 0.00 88 1019.7
20260503100105 56 311 0.9 4.3 0.00 0.00 0.00 90 1019.6
20260503090105 56 20 1.7 4.3 0.00 0.00 0.00 91 1019.7
20260503081605 57 23 2.6 4.3 0.00 0.00 0.00 90 1019.5
20260503080605 57 5 2.6 4.3 0.00 0.00 0.00 90 1019.4
20260503080105 57 30 2.6 4.3 0.00 0.00 0.00 90 1019.3
20260503072604 58 54 1.7 4.3 0.00 0.00 0.00 88 1019.2
20260503072105 59 12 2.6 6.1 0.00 0.00 0.00 88 1019.2
20260503071604 59 43 2.6 6.1 0.00 0.00 0.00 88 1019.1
20260503071104 59 1 2.6 5.2 0.00 0.00 0.00 87 1019.0
20260503070605 59 38 1.7 5.2 0.00 0.00 0.00 87 1019.0
20260503070104 60 66 2.6 7.8 0.00 0.00 0.00 86 1019.1
20260503060104 62 57 2.6 7.0 0.00 0.00 0.00 84 1019.3
20260503055104 62 21 2.6 10.4 0.00 0.00 0.00 83 1019.3
20260503054604 63 55 3.5 10.4 0.00 0.00 0.00 83 1019.3
20260503053104 64 60 5.2 10.4 0.00 0.00 0.00 81 1019.3
20260503052604 64 56 3.5 11.3 0.00 0.00 0.00 80 1019.3
20260503052104 65 48 4.3 11.3 0.00 0.00 0.00 79 1019.3
20260503051604 66 25 2.6 5.2 0.00 0.00 0.00 78 1019.3
20260503051104 66 18 2.6 5.2 0.00 0.00 0.00 78 1019.3
20260503050604 66 41 2.6 7.0 0.00 0.00 0.00 77 1019.3
20260503050105 66 21 1.7 7.0 0.00 0.00 0.00 76 1019.4
20260503045604 66 330 4.3 7.8 0.00 0.00 0.00 75 1019.5
20260503045104 66 312 2.6 7.8 0.00 0.00 0.00 75 1019.5
20260503044104 66 353 5.2 7.8 0.00 0.00 0.00 73 1019.6
20260503043604 66 67 5.2 7.8 0.00 0.00 0.00 75 1019.7
20260503043104 66 53 2.6 7.8 0.00 0.00 0.00 76 1019.7
20260503042604 66 68 1.7 5.2 0.00 0.00 0.00 76 1019.7
20260503042104 66 324 0.0 5.2 0.00 0.00 0.00 76 1019.7
20260503041104 65 64 3.5 7.8 0.00 0.00 0.00 74 1019.8
20260503040604 66 44 1.7 4.3 0.00 0.00 0.00 74 1019.8
20260503040104 66 51 1.7 4.3 0.00 0.00 0.00 74 1019.8
20260503035604 66 356 1.7 4.3 0.00 0.00 0.00 74 1019.9
20260503035104 66 50 0.9 4.3 0.00 0.00 0.00 73 1020.0
20260503033604 67 318 1.7 4.3 0.00 0.00 0.00 73 1020.2
20260503032604 66 308 3.5 5.2 0.00 0.00 0.00 73 1020.3
20260503032104 66 283 2.6 5.2 0.00 0.00 0.00 72 1020.4
20260503031604 66 333 2.6 7.8 0.00 0.00 0.00 72 1020.5
20260503031104 66 338 2.6 7.8 0.00 0.00 0.00 72 1020.4
20260503030604 65 306 2.6 7.8 0.00 0.00 0.00 73 1020.5
20260503030104 66 2 2.6 7.0 0.00 0.00 0.00 72 1020.6
20260503024604 66 332 2.6 5.2 0.00 0.00 0.00 70 1020.7
20260503024104 67 309 3.5 5.2 0.00 0.00 0.00 69 1020.8
20260503023603 67 329 1.7 5.2 0.00 0.00 0.00 71 1020.8
20260503023104 66 320 1.7 5.2 0.00 0.00 0.00 73 1020.9
20260503022603 66 303 1.7 4.3 0.00 0.00 0.00 72 1021.0
20260503022104 66 300 1.7 4.3 0.00 0.00 0.00 71 1021.1
20260503021104 67 343 1.7 4.3 0.00 0.00 0.00 71 1021.3
20260503020604 67 297 0.9 4.3 0.00 0.00 0.00 69 1021.4
20260503015604 67 312 0.9 7.0 0.00 0.00 0.00 72 1021.6
20260503015103 67 0 1.7 4.3 0.00 0.00 0.00 71 1021.6
20260503014603 67 56 1.7 7.8 0.00 0.00 0.00 71 1021.6
20260503014104 68 283 4.3 7.8 0.00 0.00 0.00 70 1021.7
20260503013103 67 307 0.9 2.6 0.00 0.00 0.00 72 1022.0
20260503012603 66 326 1.7 4.3 0.00 0.00 0.00 71 1022.1
20260503012104 66 23 1.7 4.3 0.00 0.00 0.00 70 1022.2
20260503011604 66 283 0.9 7.0 0.00 0.00 0.00 73 1022.2
20260503010604 65 356 3.5 7.0 0.00 0.00 0.00 72 1022.3
20260503010104 65 304 1.7 5.2 0.00 0.00 0.00 73 1022.4
20260503004604 64 323 0.0 5.2 0.00 0.00 0.00 75 1022.4
20260503003604 63 297 1.7 4.3 0.00 0.00 0.00 74 1022.6
20260503003104 63 68 1.7 5.2 0.00 0.00 0.00 75 1022.6
20260503002605 63 322 1.7 5.2 0.00 0.00 0.00 76 1022.6
20260503001604 62 0 3.5 7.8 0.00 0.00 0.00 76 1022.7
20260503001105 62 357 3.5 7.8 0.00 0.00 0.00 77 1022.7
20260503000604 62 355 2.6 6.1 0.00 0.00 0.00 77 1022.7
20260503000105 61 313 2.6 8.7 0.00 0.00 0.00 79 1022.8
20260502235605 60 295 1.7 8.7 0.00 0.00 0.00 80 1022.8
20260502235104 60 338 2.6 7.8 0.00 0.00 0.00 80 1022.8
20260502234605 60 6 3.5 7.8 0.00 0.00 0.00 80 1022.8
20260502234104 59 329 1.7 5.2 0.00 0.00 0.00 81 1022.9
20260502233104 59 35 2.6 6.1 0.00 0.00 0.00 83 1022.9
20260502232604 58 0 4.3 7.8 0.00 0.00 0.00 83 1022.8
20260502232105 58 342 4.3 7.8 0.00 0.00 0.00 84 1022.9
20260502231604 57 4 4.3 7.8 0.00 0.00 0.00 85 1022.9
20260502231104 57 301 3.5 6.1 0.00 0.00 0.00 87 1022.9
20260502230605 57 355 1.7 5.2 0.00 0.00 0.00 89 1022.9
20260502230105 56 300 2.6 5.2 0.00 0.00 0.00 89 1023.0
20260502225604 56 327 2.6 5.2 0.00 0.00 0.00 90 1023.0
20260502225104 56 304 5.2 7.8 0.00 0.00 0.00 92 1023.0
20260502224605 55 334 4.3 8.7 0.00 0.00 0.00 94 1023.0
20260502224104 54 340 2.6 8.7 0.00 0.00 0.00 95 1022.9
20260502223605 54 323 4.3 6.1 0.00 0.00 0.00 96 1023.0
20260502223105 54 324 2.6 5.2 0.00 0.00 0.00 97 1023.0
20260502222604 53 314 2.6 6.1 0.00 0.00 0.00 97 1022.9
20260502222104 53 4 2.6 6.1 0.00 0.00 0.00 97 1023.0
20260502221604 53 310 2.6 6.1 0.00 0.00 0.00 97 1023.0
20260502220104 52 300 0.9 4.3 0.00 0.00 0.00 98 1022.8
20260502215604 52 293 2.6 4.3 0.00 0.00 0.00 98 1022.8
20260502215104 52 290 1.7 4.3 0.00 0.00 0.00 97 1022.9
20260502214604 52 286 1.7 4.3 0.00 0.00 0.00 97 1022.8
20260502214105 52 287 0.9 2.6 0.00 0.00 0.00 97 1022.8
20260502213604 52 287 1.7 2.6 0.00 0.00 0.00 97 1022.8
20260502213104 52 286 1.7 2.6 0.00 0.00 0.00 97 1022.6
20260502212605 52 275 1.7 2.6 0.00 0.00 0.00 97 1022.5
20260502211604 52 306 0.9 4.3 0.00 0.00 0.00 97 1022.3
20260502211104 52 305 1.7 4.3 0.00 0.00 0.00 97 1022.4
20260502210604 52 323 1.7 4.3 0.00 0.00 0.00 97 1022.3
20260502210104 52 4 0.9 4.3 0.00 0.00 0.00 97 1022.1
20260502205605 52 8 1.7 4.3 0.00 0.00 0.00 97 1022.0
20260502204604 52 4 1.7 2.6 0.00 0.00 0.00 97 1021.9
20260502204104 52 4 1.7 4.3 0.00 0.00 0.00 97 1021.9
20260502203604 52 4 1.7 4.3 0.00 0.00 0.00 97 1022.0
20260502203105 52 14 1.7 4.3 0.00 0.00 0.00 97 1022.1
20260502202604 52 324 2.6 4.3 0.00 0.00 0.00 97 1022.1
20260502202104 52 340 2.6 4.3 0.00 0.00 0.00 97 1021.9
20260502201604 52 308 1.7 4.3 0.00 0.00 0.00 97 1022.0
20260502201105 52 4 1.7 4.3 0.00 0.00 0.00 97 1022.0
20260502200605 52 4 1.7 4.3 0.00 0.00 0.00 97 1022.0
20260502195605 52 357 1.7 4.3 0.00 0.00 0.00 97 1022.0
20260502195104 52 357 2.6 4.3 0.00 0.00 0.00 97 1022.1
20260502194605 52 357 1.7 4.3 0.00 0.00 0.00 97 1022.1
20260502194104 52 321 1.7 4.3 0.00 0.00 0.00 97 1022.1
20260502193104 52 340 1.7 5.2 0.00 0.00 0.00 97 1022.1
20260502192604 52 348 2.6 4.3 0.00 0.00 0.00 97 1022.1
20260502192104 52 26 2.6 4.3 0.00 0.00 0.00 97 1022.1
20260502191604 52 329 1.7 4.3 0.00 0.00 0.00 97 1022.1
20260502191104 52 302 0.9 4.3 0.00 0.00 0.00 97 1022.0
20260502190604 52 3 1.7 4.3 0.00 0.00 0.00 97 1022.0